| time (UTC) | temp F | wind direction | speed knots | gust knots | rain 1hr in | rain 24hr in | rain mn in | humidity % | barometer mb |
| 20260506041606 | 56 | 283 | 0.9 | 3.5 | 0.00 | 0.00 | 0.00 | 81 | 1017.3 |
| 20260506040100 | 56 | 283 | 0.9 | 3.5 | 0.00 | 0.00 | 0.00 | 81 | 1017.0 |
| 20260506034601 | 56 | 283 | 0.9 | 3.5 | 0.00 | 0.00 | 0.00 | 81 | 1016.9 |
| 20260506033058 | 56 | 314 | 0.9 | 5.2 | 0.00 | 0.00 | 0.00 | 81 | 1016.6 |
| 20260506031600 | 56 | 254 | 1.7 | 4.3 | 0.00 | 0.00 | 0.00 | 81 | 1016.5 |
| 20260506030058 | 56 | 266 | 1.7 | 3.5 | 0.00 | 0.00 | 0.00 | 81 | 1016.4 |
| 20260506024605 | 57 | 305 | 0.9 | 3.5 | 0.00 | 0.00 | 0.00 | 79 | 1016.1 |
| 20260506023103 | 59 | 280 | 2.6 | 4.3 | 0.00 | 0.00 | 0.00 | 77 | 1015.9 |
| 20260506021559 | 60 | 256 | 1.7 | 4.3 | 0.00 | 0.00 | 0.00 | 75 | 1015.8 |
| 20260506020110 | 59 | 257 | 2.6 | 5.2 | 0.00 | 0.00 | 0.00 | 75 | 1015.8 |
| 20260506014611 | 59 | 290 | 0.9 | 4.3 | 0.00 | 0.00 | 0.00 | 75 | 1015.8 |
| 20260506013056 | 59 | 285 | 0.9 | 3.5 | 0.00 | 0.00 | 0.00 | 74 | 1015.9 |
| 20260506011623 | 60 | 267 | 0.9 | 4.3 | 0.00 | 0.00 | 0.00 | 74 | 1015.8 |
| 20260506010057 | 60 | 270 | 2.6 | 7.0 | 0.00 | 0.00 | 0.00 | 73 | 1015.7 |
| 20260506004606 | 60 | 265 | 1.7 | 5.2 | 0.00 | 0.00 | 0.00 | 74 | 1015.7 |
| 20260506003058 | 59 | 271 | 3.5 | 8.7 | 0.00 | 0.00 | 0.00 | 75 | 1015.6 |
| 20260506001602 | 60 | 240 | 4.3 | 7.0 | 0.00 | 0.00 | 0.00 | 72 | 1015.4 |
| 20260506000120 | 60 | 267 | 4.3 | 9.6 | 0.00 | 0.00 | 0.00 | 72 | 1015.4 |
| 20260505234558 | 59 | 283 | 6.1 | 10.4 | 0.00 | 0.00 | 0.00 | 74 | 1015.4 |
| 20260505233102 | 60 | 293 | 3.5 | 8.7 | 0.00 | 0.00 | 0.00 | 72 | 1015.6 |
| 20260505231613 | 61 | 287 | 4.3 | 7.8 | 0.00 | 0.00 | 0.00 | 73 | 1015.6 |
| 20260505230109 | 60 | 314 | 2.6 | 8.7 | 0.00 | 0.00 | 0.00 | 74 | 1015.5 |
| 20260505224600 | 60 | 234 | 3.5 | 7.8 | 0.00 | 0.00 | 0.00 | 74 | 1015.6 |
| 20260505223101 | 61 | 257 | 2.6 | 8.7 | 0.00 | 0.00 | 0.00 | 72 | 1015.6 |
| 20260505221601 | 61 | 274 | 4.3 | 8.7 | 0.00 | 0.00 | 0.00 | 70 | 1015.8 |
| 20260505220058 | 62 | 248 | 0.9 | 7.8 | 0.00 | 0.00 | 0.00 | 69 | 1015.7 |
| 20260505214556 | 61 | 257 | 2.6 | 7.0 | 0.00 | 0.00 | 0.00 | 70 | 1015.9 |
| 20260505213057 | 60 | 278 | 3.5 | 7.8 | 0.00 | 0.00 | 0.00 | 73 | 1016.0 |
| 20260505211558 | 59 | 243 | 3.5 | 7.0 | 0.00 | 0.00 | 0.00 | 73 | 1016.1 |
| 20260505210057 | 59 | 250 | 3.5 | 8.7 | 0.00 | 0.00 | 0.00 | 72 | 1016.0 |
| 20260505204602 | 60 | 0 | 0.9 | 7.8 | 0.00 | 0.00 | 0.00 | 74 | 1015.9 |
| 20260505203102 | 60 | 226 | 4.3 | 9.6 | 0.00 | 0.00 | 0.00 | 70 | 1015.9 |
| 20260505201600 | 61 | 290 | 2.6 | 6.1 | 0.00 | 0.00 | 0.00 | 71 | 1015.9 |
| 20260505200056 | 61 | 261 | 4.3 | 8.7 | 0.00 | 0.00 | 0.00 | 70 | 1016.1 |
| 20260505194617 | 61 | 276 | 2.6 | 6.1 | 0.00 | 0.00 | 0.00 | 71 | 1016.1 |
| 20260505193106 | 59 | 321 | 2.6 | 6.1 | 0.00 | 0.00 | 0.00 | 75 | 1016.2 |
| 20260505191608 | 60 | 278 | 2.6 | 8.7 | 0.00 | 0.00 | 0.00 | 72 | 1016.2 |
| 20260505190057 | 59 | 266 | 1.7 | 8.7 | 0.00 | 0.00 | 0.00 | 78 | 1016.1 |
| 20260505184556 | 57 | 260 | 2.6 | 6.1 | 0.00 | 0.00 | 0.00 | 82 | 1016.1 |
| 20260505183057 | 57 | 262 | 2.6 | 5.2 | 0.00 | 0.00 | 0.00 | 82 | 1016.2 |
| 20260505181558 | 57 | 243 | 0.9 | 7.0 | 0.00 | 0.00 | 0.00 | 84 | 1016.1 |
| 20260505180100 | 56 | 249 | 1.7 | 6.1 | 0.00 | 0.00 | 0.00 | 84 | 1016.0 |
| 20260505174558 | 56 | 297 | 1.7 | 7.0 | 0.00 | 0.00 | 0.00 | 86 | 1015.8 |
| 20260505173113 | 55 | 307 | 0.9 | 5.2 | 0.00 | 0.00 | 0.00 | 88 | 1015.7 |
| 20260505171625 | 54 | 285 | 0.9 | 4.3 | 0.00 | 0.00 | 0.00 | 89 | 1015.7 |
| 20260505170055 | 54 | 290 | 2.6 | 5.2 | 0.00 | 0.00 | 0.00 | 88 | 1015.7 |
| 20260505164604 | 54 | 0 | 0.0 | 1.7 | 0.00 | 0.00 | 0.00 | 87 | 1015.6 |
| 20260505163058 | 54 | 284 | 0.0 | 2.6 | 0.00 | 0.00 | 0.00 | 87 | 1015.6 |
| 20260505161602 | 54 | 262 | 0.0 | 5.2 | 0.00 | 0.00 | 0.00 | 87 | 1015.5 |
| 20260505153103 | 53 | 289 | 0.9 | 4.3 | 0.00 | 0.00 | 0.00 | 88 | 1015.3 |
| 20260505151600 | 53 | 305 | 0.9 | 3.5 | 0.00 | 0.00 | 0.00 | 89 | 1015.1 |
| 20260505150120 | 53 | 309 | 0.0 | 1.7 | 0.00 | 0.00 | 0.00 | 89 | 1015.1 |
| 20260505130111 | 51 | 178 | 0.9 | 1.7 | 0.00 | 0.00 | 0.00 | 90 | 1014.3 |
| 20260505124618 | 51 | 0 | 0.9 | 3.5 | 0.00 | 0.00 | 0.00 | 92 | 1014.6 |
| 20260505123116 | 51 | 277 | 0.0 | 0.9 | 0.00 | 0.00 | 0.00 | 92 | 1014.6 |
| 20260505121623 | 51 | 0 | 0.0 | 2.6 | 0.00 | 0.00 | 0.00 | 92 | 1014.4 |
| 20260505120057 | 51 | 293 | 0.0 | 1.7 | 0.00 | 0.00 | 0.00 | 92 | 1014.4 |
| 20260505114555 | 51 | 0 | 0.0 | 0.0 | 0.00 | 0.00 | 0.00 | 92 | 1014.5 |
| 20260505113103 | 51 | 0 | 0.0 | 0.0 | 0.00 | 0.00 | 0.00 | 91 | 1014.7 |
| 20260505111556 | 51 | 313 | 0.0 | 1.7 | 0.00 | 0.00 | 0.00 | 91 | 1014.7 |
| 20260505101559 | 51 | 312 | 0.9 | 2.6 | 0.00 | 0.00 | 0.00 | 87 | 1014.5 |
| 20260505100136 | 51 | 262 | 1.7 | 3.5 | 0.00 | 0.00 | 0.00 | 87 | 1014.6 |
| 20260505094555 | 50 | 266 | 1.7 | 2.6 | 0.00 | 0.00 | 0.00 | 88 | 1014.8 |
| 20260505093058 | 50 | 0 | 0.0 | 0.9 | 0.00 | 0.00 | 0.00 | 88 | 1015.1 |
| 20260505091618 | 51 | 311 | 0.0 | 0.9 | 0.00 | 0.00 | 0.00 | 87 | 1015.1 |
| 20260505090104 | 51 | 0 | 0.0 | 0.9 | 0.00 | 0.00 | 0.00 | 83 | 1015.3 |
| 20260505084603 | 51 | 0 | 0.0 | 0.9 | 0.00 | 0.00 | 0.00 | 81 | 1015.4 |
| 20260505083056 | 51 | 0 | 0.0 | 1.7 | 0.00 | 0.00 | 0.00 | 82 | 1015.5 |
| 20260505081558 | 51 | 271 | 0.0 | 3.5 | 0.00 | 0.00 | 0.00 | 83 | 1015.5 |
| 20260505080059 | 51 | 277 | 1.7 | 5.2 | 0.00 | 0.00 | 0.00 | 83 | 1015.7 |
| 20260505074609 | 52 | 281 | 0.9 | 2.6 | 0.00 | 0.00 | 0.00 | 83 | 1015.9 |
| 20260505073102 | 52 | 285 | 0.9 | 3.5 | 0.00 | 0.00 | 0.00 | 82 | 1015.9 |
| 20260505071557 | 52 | 300 | 0.9 | 3.5 | 0.00 | 0.00 | 0.00 | 82 | 1015.6 |
| 20260505070058 | 52 | 296 | 1.7 | 3.5 | 0.00 | 0.00 | 0.00 | 82 | 1015.5 |
| 20260505064608 | 52 | 309 | 0.9 | 1.7 | 0.00 | 0.00 | 0.00 | 82 | 1015.3 |
| 20260505063055 | 52 | 314 | 0.9 | 2.6 | 0.00 | 0.00 | 0.00 | 82 | 1015.2 |
| 20260505061556 | 52 | 298 | 0.0 | 2.6 | 0.00 | 0.00 | 0.00 | 82 | 1015.1 |
| 20260505060055 | 52 | 290 | 0.9 | 4.3 | 0.00 | 0.00 | 0.00 | 82 | 1015.0 |
| 20260505054618 | 52 | 253 | 1.7 | 4.3 | 0.00 | 0.00 | 0.00 | 83 | 1015.0 |
| 20260505053056 | 53 | 259 | 0.9 | 4.3 | 0.00 | 0.00 | 0.00 | 83 | 1015.3 |
| 20260505051557 | 53 | 293 | 2.6 | 6.1 | 0.00 | 0.00 | 0.00 | 82 | 1015.4 |